Powrót do katalogu

THORAD AGENA D DEB

AktywnySSO
NORAD 42500·DEBRIS·🇺🇸 United States

Wystrzelony Apr 8, 1970 z Vandenberg Space Force Base

Loading…

Następne Przeloty (najbliższe 24 godziny)

TLE

ŚwieżeSource: Space-Track

Epoka: Sep 11, 2026, 10:10 UTC

1 42500U 70025RE  26254.42379896  .00000063  00000-0  15442-3 0  9990
2 42500  99.4250 111.0074 0011049  29.9433  92.2697 13.54046150632556

Śledź THORAD AGENA D DEB w czasie rzeczywistym z AllMySat

Download on the App Store